Location: Willingham
(52.3167°N, 0.0667°E)
Time: 19:39:03
(UTC+00:00)

Cosmos 1400 Rocket - Pass Details

Date: 19 May 2025
Orbit: 484 x 519 km, 81.1° (Epoch: 23 June)

Event Time Altitude Azimuth Distance (km) Brightness Sun altitude
Rises 21:07:36 0° 204° (SSW) 2,558 6.0 -9.0°
Reaches altitude 10° 21:09:45 10° 210° (SSW) 1,677 5.1 -9.2°
Maximum altitude 21:13:19 50° 287° (WNW) 627 3.5 -9.5°
Drops below altitude 10° 21:16:55 10° 4° (N) 1,682 6.1 -9.8°
Sets 21:19:05 0° 10° (N) 2,567 6.9 -10.0°
